Lid_Strength_Index
3 3 1 1 1 2 2 2 2 3 3 2 2 3 2 1 1 1 2 2 3 3 3 4 5 6 6 6 6 6 7 8 10 13 11 11 10 9 7 6 7 7 7
3 1 1 0 1 2 2 3 3 4 3 4 3 3 2 1 1 1 2 1 2 2 3 3 5 6 7 7 7 7 8 7 9 15 12 11 10 9 8 9 9 9 8
3 2 1 1 1 2 3 4 3 3 3 4 3 3 3 3 2 1 1 1 1 1 1 2 3 5 7 7 7 7 7 8 9 13 13 11 11 10 10 10 10 10 9
5 2 3 3 2 2 2 3 3 4 5 4 4 4 4 3 1 2 3 1 1 1 1 1 2 4 6 6 8 8 8 9 10 12 13 13 12 11 12 12 13 11 11
3 3 4 3 4 5 4 4 4 4 3 3 2 3 2 2 2 2 2 3 2 1 2 1 2 3 5 6 6 8 9 10 11 13 13 14 14 14 14 13 14 13 12
4 5 5 5 4 4 4 3 4 4 4 3 4 3 3 3 5 5 5 3 4 4 2 2 1 4 5 8 8 8 9 10 11 12 13 14 14 14 13 14 14 15 16
5 5 5 5 5 4 3 3 4 5 6 6 6 5 5 4 6 6 6 3 3 4 3 2 2 3 5 6 8 9 10 10 11 10 12 12 13 13 13 13 13 14 14
6 6 5 5 5 5 5 5 5 6 7 7 7 6 6 6 7 7 7 5 3 4 3 2 2 2 4 6 7 8 9 10 10 9 11 11 11 11 11 11 12 13 13
7 6 5 5 5 5 6 6 5 5 6 7 7 6 6 6 7 7 7 6 5 5 3 4 1 2 6 6 7 9 9 10 10 10 10 10 11 11 11 12 14 15 16
7 7 6 6 5 6 5 5 5 5 6 6 7 6 7 6 7 7 7 7 7 7 6 5 6 3 7 8 7 8 10 10 11 11 11 11 11 12 12 12 12 14 15
7 7 7 7 6 5 6 6 6 6 5 6 7 7 7 7 7 7 7 8 8 7 7 6 5 7 7 7 6 7 8 10 11 13 12 12 13 13 13 12 12 12 14
7 7 6 6 6 5 5 5 5 6 6 6 7 7 5 5 7 7 8 9 9 9 9 8 8 7 7 8 7 8 8 9 11 12 13 13 13 13 13 13 12 12 12
7 6 6 6 6 5 6 6 6 6 7 6 7 7 6 5 5 7 10 10 10 10 10 9 8 8 7 8 8 8 10 10 10 12 13 13 13 13 13 13 13 13 12
7 7 6 6 6 6 6 6 6 6 7 7 7 8 7 7 6 8 9 9 9 10 10 9 9 10 9 9 10 10 10 10 10 11 12 12 13 13 13 13 14 13 14
7 7 7 7 7 6 6 5 5 5 6 7 7 8 8 9 8 10 10 10 10 10 10 10 10 10 10 11 10 10 10 10 11 11 11 12 13 13 14 13 13 13 14
7 7 7 7 7 7 7 7 6 7 7 7 7 9 8 9 9 10 10 11 11 11 10 10 11 10 11 11 11 11 10 11 10 11 11 12 13 14 14 13 13 13 15
7 7 7 7 7 8 7 8 8 7 6 7 8 8 9 10 9 10 11 11 11 10 10 10 11 11 10 11 11 11 11 11 11 12 12 12 13 13 13 13 12 13 14
7 8 7 7 7 7 7 7 8 8 8 7 6 8 9 9 10 10 11 11 10 10 10 11 11 11 11 11 11 11 12 12 12 12 12 12 12 12 12 13 13 13 13
7 6 6 7 7 7 7 7 7 8 7 6 6 7 8 9 10 10 11 10 10 11 11 11 10 11 11 11 12 12 12 12 12 12 12 11 11 11 12 12 12 13 13
6 8 8 7 7 7 7 8 7 8 8 7 6 7 7 9 10 10 10 11 11 11 11 12 11 11 11 12 12 12 12 12 12 12 11 11 11 11 11 12 12 12 12
6 6 8 6 6 7 7 7 7 7 8 7 6 7 8 8 9 9 10 10 10 11 11 11 11 10 11 11 11 12 12 12 12 11 11 11 11 11 11 11 12 12 12
6 6 7 7 7 7 7 7 7 7 7 7 6 6 8 8 9 9 10 10 10 10 10 10 10 10 10 11 11 11 12 12 12 11 11 11 11 11 11 12 11 11 12
7 7 7 7 7 8 7 7 7 7 7 6 6 6 7 8 8 9 9 10 10 10 10 9 10 11 11 11 11 11 11 11 10 10 11 11 11 11 11 11 11 11 11
6 7 7 7 7 7 7 7 7 7 7 6 6 7 7 8 8 9 9 10 10 10 10 10 10 11 11 11 11 10 10 10 10 11 11 11 11 11 11 11 11 11 11
7 7 7 7 7 7 6 7 7 7 7 7 6 7 7 8 8 9 9 10 10 11 11 11 11 11 11 11 11 11 11 12 11 11 10 10 11 11 10 10 10 11 11
7 7 7 7 7 7 7 7 7 7 7 7 7 6 7 8 8 8 9 10 10 11 11 11 11 11 11 11 11 12 12 12 12 11 10 10 11 10 10 11 11 11 11